[[{"header":{"parameterUnit":"m.s-1","parameterCategory":1,"la1":30.2991,"la2":30.254,"lo1":-89.0895,"lo2":-89.0444,"dy":0.0017,"dx":0.0017,"nx":28,"ny":28,"refTime":"2025-01-01T09:00:00:Z","depth":0,"parameterNumber":2,"parameterNumberName":"U-component_of_WINDS"},"data":[0,0,0,0,0,0,0,0,0,0,0,0,0,0,0,0,0,0,0,0,0,0,0,0,0,0,0,0,0,0,0,0,0,0,0,0,0,0,0,0,0,0,0,0,0,0,0,0,0,0,0,0,0,0,0,0,0,0,-1.0927,-1.0927,0,-1.092,-1.092,-1.092,-1.0881,-1.088,-1.0879,-1.0878,-1.0873,-1.0874,-1.0874,0,0,0,0,0,0,0,0,0,0,0,0,0,-1.0908,-1.0908,-1.0927,-1.0927,-1.0927,-1.092,-1.092,-1.092,-1.0881,-1.088,-1.0879,-1.0878,-1.0873,-1.0874,-1.0874,0,0,0,0,0,0,0,0,0,0,0,0,0,-1.091,-1.0908,-1.0927,-1.0907,-1.0905,-1.092,-1.092,-1.092,-1.0882,-1.088,-1.0879,-1.0878,-1.0872,-1.0873,-1.0875,-1.091,0,0,-1.0878,-1.0878,0,0,0,0,0,0,0,0,-1.091,-1.0911,-1.091,-1.0908,-1.0906,-1.09,-1.0911,-1.0917,-1.0882,-1.0891,-1.0878,-1.0877,-1.0883,-1.0883,-1.0885,-1.0909,-1.0909,-1.0878,-1.0879,-1.0879,-1.0879,0,0,0,0,0,0,0,-1.091,-1.0911,-1.0925,-1.091,-1.0908,-1.0898,-1.0897,-1.0912,-1.0895,-1.089,-1.0887,-1.0887,-1.0882,-1.0884,-1.0885,-1.0909,-1.0878,-1.0879,-1.088,-1.088,-1.0961,-1.0963,0,0,0,0,0,0,-1.0912,-1.0911,-1.0925,-1.0924,-1.0905,-1.09,-1.0898,-1.0904,-1.0895,-1.0892,-1.0888,-1.0885,-1.0883,-1.0884,-1.0884,-1.0925,-1.0879,-1.088,-1.0881,-1.096,-1.0962,-1.0963,0,0,0,0,0,0,-1.0912,-1.0914,-1.0925,-1.0917,-1.0918,-1.0902,-1.0908,-1.0904,-1.0906,-1.0893,-1.089,-1.0893,-1.0882,-1.0883,-1.0904,-1.0924,-1.0881,-1.0882,-1.0958,-1.0961,-1.0963,-1.1007,0,0,0,0,0,0,-1.0912,-1.0914,-1.0927,-1.0917,-1.0918,-1.0944,-1.0909,-1.0905,-1.0908,-1.0904,-1.0897,-1.0895,-1.0881,-1.0902,-1.0905,-1.0925,-1.0882,-1.0956,-1.0959,-1.0962,-1.1003,-1.101,-1.1016,0,0,0,0,0,-1.0911,-1.094,-1.0928,-1.093,-1.0934,-1.0945,-1.0946,-1.0929,-1.091,-1.0923,-1.0915,-1.0895,-1.0921,-1.0905,-1.0907,-1.0928,-1.0955,-1.0958,-1.0962,-1.1,-1.1009,-1.1016,0,0,0,0,0,0,-1.0953,-1.0938,-1.0925,-1.0951,-1.095,-1.0939,-1.0955,-1.0938,-1.0942,-1.0938,-1.0917,-1.0916,-1.094,-1.0936,-1.0917,-1.0962,-1.0935,-1.0939,-1.0964,-1.0971,-1.0978,-1.0979,-1.0883,0,0,0,0,0,-1.0965,-1.0976,-1.0962,-1.0987,-1.0987,-1.0971,-1.0975,-1.0962,-1.096,-1.0959,-1.0952,-1.0951,-1.0959,-1.0965,-1.0971,-1.1002,-1.1,-1.1018,-1.1024,-1.103,-1.1034,-1.105,-1.1058,-1.0975,-1.0974,-1.0974,0,0,-1.0991,-1.0984,-1.0992,-1.0995,-1.0993,-1.1004,-1.0971,-1.0984,-1.0993,-1.0961,-1.098,-1.0975,-1.0972,-1.0998,-1.101,-1.0996,-1.1056,-1.1034,-1.1038,-1.1039,-1.1054,-1.1062,-1.1069,-1.0977,-1.0976,-1.0976,0,0,-1.1044,-1.104,-1.106,-1.1058,-1.1053,-1.1043,-1.1048,-1.1039,-1.1034,-1.1052,-1.1029,-1.1039,-1.1053,-1.1052,-1.1054,-1.1105,-1.1088,-1.1108,-1.1142,-1.1158,-1.1165,-1.117,-1.1189,-1.1196,-1.1112,-1.1112,-1.1112,0,-1.1077,-1.1092,-1.1072,-1.1087,-1.109,-1.1061,-1.1082,-1.108,-1.1079,-1.1082,-1.1066,-1.1083,-1.1079,-1.1105,-1.1117,-1.1119,-1.1124,-1.1109,-1.1165,-1.1171,-1.1176,-1.1194,-1.1201,-1.1115,-1.1114,-1.1114,-1.1114,0,-1.1133,-1.1144,-1.1161,-1.116,-1.1164,-1.1182,-1.1165,-1.1171,-1.1157,-1.1148,-1.1168,-1.1162,-1.1167,-1.1172,-1.1159,-1.1196,-1.1187,-1.1169,-1.1142,-1.1186,-1.1203,-1.121,-1.1118,-1.1117,-1.1117,-1.1116,0,0,-1.1213,-1.12,-1.1207,-1.1206,-1.1199,-1.1208,-1.1224,-1.1228,-1.1234,-1.1234,-1.1248,-1.126,-1.1243,-1.1244,-1.1231,-1.1245,-1.1287,-1.1224,-1.1224,-1.1237,-1.1328,-1.1342,-1.1351,-1.1275,-1.1276,-1.1277,-1.1328,0,-1.1264,-1.1291,-1.1274,-1.1304,-1.1314,-1.1287,-1.1301,-1.1298,-1.129,-1.1298,-1.1289,-1.1298,-1.1274,-1.1275,-1.1288,-1.1279,-1.1305,-1.1275,-1.1288,-1.1289,-1.129,-1.1359,-1.1375,-1.1423,-1.1334,-1.1335,-1.1336,0,-1.1328,-1.133,-1.1361,-1.1352,-1.1355,-1.1369,-1.1371,-1.1379,-1.1375,-1.1368,-1.137,-1.1353,-1.1368,-1.1341,-1.1362,-1.1343,-1.1347,-1.1343,-1.1345,-1.1346,-1.1316,-1.1363,-1.1438,-1.1446,-1.1346,-1.1345,-1.1345,0,-1.1384,-1.1395,-1.1414,-1.1414,-1.1404,-1.1414,-1.141,-1.1405,-1.1409,-1.1411,-1.1413,-1.1418,-1.142,-1.1424,-1.1408,-1.139,-1.1432,-1.1403,-1.1428,-1.1428,-1.1439,-1.1438,-1.1517,-1.144,-1.144,-1.144,-1.144,0,-1.1444,-1.1464,-1.144,-1.1452,-1.1474,-1.1453,-1.1475,-1.1469,-1.1464,-1.1475,-1.1452,-1.1463,-1.1441,-1.145,-1.1437,-1.1458,-1.1459,-1.1454,-1.1451,-1.1457,-1.1457,-1.146,-1.1456,-1.1442,-1.1441,-1.1441,-1.144,0,-1.1511,-1.1495,-1.1515,-1.1503,-1.1501,-1.1518,-1.1508,-1.1519,-1.1508,-1.1523,-1.1525,-1.1509,-1.1518,-1.1502,-1.151,-1.1501,-1.153,-1.1521,-1.1531,-1.1529,-1.1554,-1.1552,-1.1637,-1.1647,-1.1563,-1.1564,-1.1565,0,-1.155,-1.1565,-1.1555,-1.156,-1.1557,-1.1566,-1.157,-1.155,-1.1554,-1.1551,-1.1563,-1.157,-1.1574,-1.159,-1.1579,-1.1585,-1.1576,-1.1606,-1.1577,-1.1583,-1.1578,-1.1577,-1.1579,-1.1612,-1.1613,-1.1614,-1.1614,0,-1.1622,-1.1614,-1.1619,-1.1622,-1.1627,-1.1628,-1.1628,-1.1634,-1.1613,-1.1619,-1.1627,-1.1631,-1.1638,-1.1645,-1.1648,-1.1644,-1.1626,-1.1623,-1.1629,-1.1636,-1.1642,-1.164,-1.1548,-1.1622,-1.1621,-1.162,-1.162,-1.162,-1.1677,-1.1689,-1.1684,-1.1691,-1.1688,-1.1688,-1.1698,-1.1689,-1.1696,-1.1699,-1.1687,-1.1699,-1.1695,-1.1696,-1.1695,-1.1704,-1.1691,-1.1699,-1.1702,-1.1704,-1.1709,-1.1639,-1.1704,-1.1704,-1.1703,-1.1703,-1.1703,0,-1.1749,-1.1744,-1.175,-1.175,-1.1756,-1.1737,-1.1736,-1.1742,-1.1752,-1.175,-1.1754,-1.1764,-1.1771,-1.1761,-1.1766,-1.1775,-1.1767,-1.1777,-1.1777,-1.1777,-1.1719,-1.1714,-1.1784,-1.1784,-1.1784,-1.1784,-1.1784,-1.1784,-1.1787,-1.1806,-1.1797,-1.1814,-1.1809,-1.182,-1.1821,-1.1821,-1.1819,-1.1831,-1.1836,-1.1829,-1.1823,-1.1828,-1.1833,-1.183,-1.1834,-1.1847,-1.1841,-1.1788,-1.178,-1.1773,-1.1768,-1.1848,-1.1848,-1.1897,-1.1898,-1.1898]},{"header":{"parameterUnit":"m.s-1","parameterCategory":1,"la1":30.2991,"la2":30.254,"lo1":-89.0895,"lo2":-89.0444,"dy":0.0017,"dx":0.0017,"nx":28,"ny":28,"refTime":"2025-01-01T09:00:00:Z","depth":0,"parameterNumber":3,"parameterNumberName":"V-component_of_WINDS"},"data":[0,0,0,0,0,0,0,0,0,0,0,0,0,0,0,0,0,0,0,0,0,0,0,0,0,0,0,0,0,0,0,0,0,0,0,0,0,0,0,0,0,0,0,0,0,0,0,0,0,0,0,0,0,0,0,0,0,0,-4.5268,-4.5269,0,-4.5307,-4.5307,-4.5307,-4.528,-4.5278,-4.5277,-4.5276,-4.5311,-4.5313,-4.5315,0,0,0,0,0,0,0,0,0,0,0,0,0,-4.5168,-4.517,-4.5268,-4.5269,-4.5269,-4.5306,-4.5307,-4.5307,-4.528,-4.5278,-4.5277,-4.5276,-4.5311,-4.5313,-4.5316,0,0,0,0,0,0,0,0,0,0,0,0,0,-4.5209,-4.5171,-4.5268,-4.526,-4.526,-4.5306,-4.5307,-4.5308,-4.528,-4.5278,-4.5277,-4.5275,-4.531,-4.5313,-4.5316,-4.5371,0,0,-4.5325,-4.5327,0,0,0,0,0,0,0,0,-4.5207,-4.5213,-4.5261,-4.5261,-4.526,-4.5287,-4.5285,-4.5329,-4.5281,-4.5272,-4.5276,-4.5274,-4.5304,-4.5308,-4.5319,-4.5373,-4.5375,-4.5326,-4.5328,-4.5329,-4.533,0,0,0,0,0,0,0,-4.5204,-4.5211,-4.5283,-4.5261,-4.5261,-4.5253,-4.5257,-4.5293,-4.5298,-4.5273,-4.5271,-4.5276,-4.5304,-4.5316,-4.5319,-4.5375,-4.5326,-4.5328,-4.533,-4.5332,-4.5478,-4.548,0,0,0,0,0,0,-4.5203,-4.5209,-4.5282,-4.5284,-4.5229,-4.5257,-4.5261,-4.528,-4.5297,-4.5298,-4.5278,-4.5275,-4.5311,-4.5316,-4.5321,-4.5388,-4.5329,-4.5332,-4.5334,-4.5476,-4.5479,-4.5481,0,0,0,0,0,0,-4.5201,-4.5209,-4.528,-4.5246,-4.5255,-4.526,-4.5282,-4.5282,-4.5294,-4.5301,-4.5301,-4.5289,-4.531,-4.5316,-4.536,-4.5389,-4.5333,-4.5336,-4.5474,-4.5477,-4.548,-4.5522,0,0,0,0,0,0,-4.5198,-4.5209,-4.5231,-4.5247,-4.5257,-4.532,-4.5284,-4.5284,-4.53,-4.5296,-4.5312,-4.5313,-4.5309,-4.5355,-4.5363,-4.5392,-4.5338,-4.5471,-4.5475,-4.5479,-4.5518,-4.5527,-4.5534,0,0,0,0,0,-4.5194,-4.524,-4.5232,-4.5241,-4.5284,-4.5322,-4.5327,-4.5323,-4.5302,-4.5324,-4.5329,-4.5312,-4.5384,-4.536,-4.5368,-4.5399,-4.5469,-4.5474,-4.5478,-4.5515,-4.5525,-4.5533,0,0,0,0,0,0,-4.5225,-4.5242,-4.5233,-4.5286,-4.5303,-4.5317,-4.5344,-4.5333,-4.5356,-4.5351,-4.5344,-4.5348,-4.5394,-4.54,-4.5373,-4.5454,-4.5423,-4.543,-4.5448,-4.5458,-4.5465,-4.5463,-4.5341,0,0,0,0,0,-4.5239,-4.5269,-4.5281,-4.5326,-4.5335,-4.5339,-4.5354,-4.535,-4.5367,-4.5373,-4.5381,-4.5397,-4.5423,-4.5441,-4.5465,-4.5519,-4.5522,-4.5544,-4.5552,-4.5558,-4.5564,-4.5594,-4.5604,-4.5496,-4.5496,-4.5496,0,0,-4.5265,-4.5278,-4.5298,-4.5333,-4.5345,-4.5376,-4.5345,-4.5378,-4.5401,-4.5378,-4.542,-4.5427,-4.5444,-4.5493,-4.5515,-4.55,-4.5594,-4.5564,-4.5568,-4.5571,-4.56,-4.561,-4.5619,-4.5499,-4.5498,-4.5498,0,0,-4.5331,-4.5343,-4.5383,-4.5397,-4.5417,-4.5419,-4.5429,-4.5445,-4.5449,-4.5492,-4.5476,-4.5502,-4.5547,-4.556,-4.5573,-4.5645,-4.5631,-4.5652,-4.5692,-4.5722,-4.573,-4.5738,-4.5764,-4.5774,-4.5658,-4.5658,-4.5658,0,-4.5362,-4.5409,-4.5405,-4.544,-4.5456,-4.5439,-4.5479,-4.5492,-4.5518,-4.553,-4.5512,-4.557,-4.558,-4.5633,-4.565,-4.5661,-4.5671,-4.5651,-4.5729,-4.5737,-4.5744,-4.5769,-4.5779,-4.5661,-4.5661,-4.566,-4.566,0,-4.5446,-4.5479,-4.5508,-4.5537,-4.5556,-4.5593,-4.5594,-4.5614,-4.5608,-4.5612,-4.5655,-4.5667,-4.5694,-4.5706,-4.57,-4.5759,-4.5749,-4.5731,-4.57,-4.5757,-4.5781,-4.579,-4.5665,-4.5664,-4.5663,-4.5662,0,0,-4.5532,-4.5559,-4.557,-4.5583,-4.5605,-4.5629,-4.5666,-4.5694,-4.5711,-4.573,-4.5761,-4.58,-4.5784,-4.5798,-4.5793,-4.5819,-4.5876,-4.5797,-4.5798,-4.5813,-4.5943,-4.5958,-4.5969,-4.5867,-4.5869,-4.587,-4.5942,0,-4.5599,-4.5665,-4.5663,-4.5724,-4.5755,-4.5739,-4.5771,-4.5787,-4.5791,-4.5817,-4.5821,-4.585,-4.5825,-4.5834,-4.5859,-4.5864,-4.5903,-4.5859,-4.5895,-4.5897,-4.5893,-4.5981,-4.5996,-4.6063,-4.5951,-4.5953,-4.5954,0,-4.5687,-4.5712,-4.5776,-4.5795,-4.5807,-4.5836,-4.5863,-4.5887,-4.5905,-4.5907,-4.5924,-4.5915,-4.5951,-4.5919,-4.5969,-4.5939,-4.5954,-4.5959,-4.5961,-4.5965,-4.593,-4.5988,-4.6084,-4.6095,-4.5968,-4.5967,-4.5966,0,-4.5745,-4.5794,-4.5839,-4.5851,-4.5873,-4.5894,-4.5904,-4.592,-4.5937,-4.596,-4.5971,-4.5996,-4.6011,-4.603,-4.6028,-4.6005,-4.608,-4.6047,-4.6082,-4.6082,-4.6099,-4.6098,-4.62,-4.6107,-4.6107,-4.6106,-4.6106,0,-4.5822,-4.5862,-4.5866,-4.5894,-4.5939,-4.5935,-4.5979,-4.5987,-4.6002,-4.603,-4.6017,-4.6044,-4.6039,-4.6066,-4.6064,-4.6106,-4.6112,-4.6114,-4.6114,-4.6116,-4.6116,-4.6127,-4.6122,-4.6109,-4.6108,-4.6108,-4.6107,0,-4.5894,-4.5898,-4.5947,-4.5965,-4.597,-4.6003,-4.6017,-4.6043,-4.6047,-4.6083,-4.6091,-4.6097,-4.6127,-4.6127,-4.6162,-4.6161,-4.6213,-4.6206,-4.6208,-4.6207,-4.6242,-4.624,-4.6355,-4.637,-4.6266,-4.6267,-4.6268,0,-4.5944,-4.5975,-4.5997,-4.6016,-4.6028,-4.6058,-4.6077,-4.6074,-4.6094,-4.6117,-4.6141,-4.6171,-4.6195,-4.6244,-4.625,-4.6277,-4.6271,-4.631,-4.6275,-4.6277,-4.6273,-4.6272,-4.6276,-4.6317,-4.6318,-4.6319,-4.632,0,-4.6031,-4.6032,-4.606,-4.6089,-4.6112,-4.6134,-4.6154,-4.617,-4.617,-4.6193,-4.6225,-4.6244,-4.628,-4.631,-4.6336,-4.6345,-4.6333,-4.6331,-4.6341,-4.6344,-4.6345,-4.6346,-4.6228,-4.6328,-4.6328,-4.6327,-4.6327,-4.6326,-4.6094,-4.6122,-4.6142,-4.6174,-4.619,-4.6209,-4.6236,-4.6243,-4.6271,-4.6301,-4.6298,-4.6334,-4.6351,-4.6385,-4.6396,-4.6424,-4.641,-4.6424,-4.6428,-4.6431,-4.6436,-4.6339,-4.6428,-4.6428,-4.6428,-4.6428,-4.6427,0,-4.6182,-4.6195,-4.6224,-4.6255,-4.628,-4.6267,-4.6289,-4.6311,-4.6344,-4.6362,-4.6386,-4.6424,-4.6453,-4.6462,-4.649,-4.651,-4.6506,-4.6518,-4.6517,-4.6519,-4.6446,-4.6436,-4.6522,-4.6522,-4.6522,-4.6521,-4.6521,-4.6521,-4.6231,-4.6278,-4.6281,-4.6335,-4.6347,-4.6384,-4.6398,-4.6416,-4.6431,-4.6474,-4.6499,-4.6505,-4.6519,-4.6548,-4.6575,-4.6576,-4.6588,-4.6603,-4.6602,-4.6534,-4.6524,-4.6515,-4.6506,-4.6605,-4.6605,-4.6673,-4.6674,-4.6675]}]]